Home > Time Zones > World Clock > Weather > Iran > Gorgan > Past weeks

Flag for Iran Weather past 2 weeks in Gorgan, Iran

Now
79 °F

Clear.


Feels Like: 81 °F
Forecast: 75 / 97 °F
Wind: 5 mph from Southwest

Location: Gorgan Airport

Current Time: Aug 3, 2015 at 11:53:33 PM

Latest Report: Aug 3, 2015 at 11:30 PM


Visibility: 10 mi

Pressure: 29.95 "Hg

Humidity: 70%

Dew point: 68 °F

Location of GorganLocation

Historic Weather in Gorgan — Graph

°F

Gorgan temperature yesterday

Maximum temperature yesterday: 100 °F (at 2:00 PM)
Minimum temperature yesterday: 70 °F (at 5:30 AM)
Average temperature yesterday: 87 °F

Past Weeks' High & Low Weather Summary

 TemperatureHumidityPressure
High104 °F (Aug 1, 2:30 PM)100% (Jul 20, 1:30 AM)30.07 "Hg (Jul 20, 1:30 AM)
Low59 °F (Jul 22, 6:30 AM)20% (Aug 1, 3:30 PM)29.62 "Hg (Jul 27, 6:30 PM)
Average83 °F62%29.86 "Hg
* Reported Jul 19 10:30 PM — Aug 3 10:30 PM, Gorgan, Weather by CustomWeather, © 2015

Note: Actual official high and low records may vary slightly from our data, if they occured in-between our weather recording intervals... More about our weather records

Advertising

Gorgan weather history for previous 24 hours

 ConditionsComfort  
Time TempWeatherWind HumidityBarometerVisibility
10:30 PM
Mon, Aug 3
81 °FClear.9 mph74%29.92 "Hg10 mi
10:00 PM81 °FClear.12 mph74%29.95 "Hg10 mi
9:30 PM81 °FClear.7 mph74%29.92 "Hg10 mi
9:00 PM84 °FSunny.7 mph62%29.92 "Hg10 mi
8:30 PM84 °FSunny.9 mph62%29.92 "Hg10 mi
7:30 PM91 °FSunny.9 mph44%29.92 "Hg10 mi
6:30 PM95 °FSunny.16 mph28%29.89 "Hg10 mi
5:30 PM100 °FSunny.18 mph21%29.89 "Hg10 mi
4:30 PM100 °FSunny.23 mph29%29.89 "Hg10 mi
3:30 PM100 °FSunny.18 mph33%29.89 "Hg10 mi
2:30 PM99 °FSunny.21 mph35%29.89 "Hg10 mi
1:30 PM100 °FSunny.21 mph31%29.92 "Hg10 mi
12:30 PM99 °FSunny.14 mph33%29.92 "Hg10 mi
11:30 AM95 °FSunny.9 mph36%29.92 "Hg10 mi
10:30 AM93 °FSunny.12 mph39%29.95 "Hg10 mi
9:30 AM91 °FSunny.9 mph46%29.95 "Hg10 mi
8:30 AM90 °FSunny.7 mph46%29.95 "Hg10 mi
7:30 AM81 °FSunny.No wind58%29.95 "Hg10 mi
6:30 AM77 °FClear.9 mph57%29.92 "Hg10 mi
5:30 AM77 °FClear.7 mph61%29.92 "Hg10 mi
4:30 AM75 °FClear.No wind69%29.89 "Hg10 mi
3:30 AM79 °FClear.12 mph65%29.89 "Hg10 mi
2:30 AM81 °FClear.16 mph62%29.89 "Hg10 mi
1:30 AM81 °FClear.12 mph66%29.92 "Hg10 mi
12:30 AM79 °FClear.7 mph70%29.92 "Hg10 mi
11:30 PM
Sun, Aug 2
82 °FClear.9 mph62%29.92 "Hg10 mi
Weather by CustomWeather, © 2015

See weather overviewHow to use our weather pages